Powrót do katalogu

COSMOS 2251 DEB

AktywnyLEO
NORAD 34972·DEBRIS·🇷🇺 Russia

Wystrzelony Jun 16, 1993 z Plesetsk Cosmodrome

Loading…

Następne Przeloty (najbliższe 24 godziny)

TLE

ŚwieżeSource: Space-Track

Epoka: Sep 13, 2026, 21:57 UTC

1 34972U 93036AFB 26256.91491260  .00006939  00000-0  96719-3 0  9991
2 34972  73.9860 229.9809 0034478 311.9402  78.6013 14.77504459917092

Śledź COSMOS 2251 DEB w czasie rzeczywistym z AllMySat

Download on the App Store